Wetterdaten: Woche 26.01.26 - 01.02.26 (KW5)
Datum Zeit Temp. Aussen Temp. o. S. Temp +5cm Feuchte Auss Luftdruck Regen Sonnenschein Regendauer Solar Windböen Empfang
26.01.2026 00:00 -2,0 °C -2,8 °C -6,1 °C 92 % 998,0 hPa 0,0 l/m² 0,00 h 0,00 h 0 W/m² 0,0 km/h (0 Bft) 96,59 %
26.01.2026 01:00 -1,5 °C -1,4 °C -4,7 °C 93 % 998,1 hPa 0,0 l/m² 0,00 h 0,00 h 0 W/m² 1,0 km/h (0 Bft) 97,32 %
26.01.2026 02:00 -0,7 °C -1,1 °C -4,4 °C 94 % 997,9 hPa 0,0 l/m² 0,00 h 0,00 h 0 W/m² 1,3 km/h (1 Bft) 95,73 %
26.01.2026 03:00 -0,4 °C -1,1 °C -4,4 °C 94 % 998,1 hPa 0,0 l/m² 0,00 h 0,00 h 0 W/m² 4,6 km/h (1 Bft) 98,34 %
26.01.2026 04:00 -0,3 °C -0,7 °C -4,1 °C 94 % 998,5 hPa 0,0 l/m² 0,00 h 0,00 h 0 W/m² 8,3 km/h (2 Bft) 95,45 %
26.01.2026 05:00 -0,3 °C -0,8 °C -4,3 °C 93 % 998,8 hPa 0,0 l/m² 0,00 h 0,00 h 0 W/m² 10,8 km/h (2 Bft) 96,72 %
26.01.2026 06:00 -0,4 °C -1,1 °C -4,4 °C 93 % 999,1 hPa 0,0 l/m² 0,00 h 0,00 h 0 W/m² 11,9 km/h (2 Bft) 98,10 %
26.01.2026 07:00 -0,6 °C -1,1 °C -4,4 °C 92 % 999,7 hPa 0,0 l/m² 0,00 h 0,00 h 0 W/m² 11,1 km/h (2 Bft) 97,17 %
26.01.2026 08:00 -0,6 °C -1,1 °C -4,4 °C 92 % 1000,4 hPa 0,0 l/m² 0,00 h 0,00 h 6 W/m² 11,2 km/h (2 Bft) 96,43 %
26.01.2026 09:00 -0,6 °C -1,1 °C -4,4 °C 93 % 1001,0 hPa 0,0 l/m² 0,00 h 0,00 h 12 W/m² 10,6 km/h (2 Bft) 97,12 %
26.01.2026 10:00 -0,6 °C -1,1 °C -4,4 °C 94 % 1001,5 hPa 0,0 l/m² 0,00 h 0,00 h 16 W/m² 12,8 km/h (3 Bft) 96,63 %
26.01.2026 11:00 -0,4 °C -0,7 °C -4,2 °C 95 % 1001,7 hPa 0,0 l/m² 0,00 h 0,00 h 32 W/m² 12,1 km/h (2 Bft) 97,05 %
26.01.2026 12:00 -0,0 °C -0,0 °C -3,5 °C 95 % 1001,9 hPa 0,0 l/m² 0,00 h 0,00 h 53 W/m² 9,9 km/h (2 Bft) 96,79 %
26.01.2026 13:00 0,4 °C 0,2 °C -3,3 °C 94 % 1002,4 hPa 0,0 l/m² 0,00 h 0,00 h 31 W/m² 11,2 km/h (2 Bft) 96,56 %
26.01.2026 14:00 0,6 °C 0,5 °C -3,3 °C 94 % 1002,9 hPa 0,0 l/m² 0,00 h 0,00 h 37 W/m² 8,6 km/h (2 Bft) 97,56 %
26.01.2026 15:00 0,6 °C 0,0 °C -3,6 °C 94 % 1003,3 hPa 0,0 l/m² 0,00 h 0,10 h 27 W/m² 6,9 km/h (2 Bft) 97,07 %
26.01.2026 16:00 0,6 °C 0,0 °C -3,3 °C 95 % 1003,7 hPa 0,2 l/m² 0,00 h 0,00 h 9 W/m² 6,3 km/h (2 Bft) 97,92 %
26.01.2026 17:00 0,5 °C 0,0 °C -3,3 °C 96 % 1003,8 hPa 0,0 l/m² 0,00 h 0,00 h 0 W/m² 5,6 km/h (1 Bft) 96,55 %
26.01.2026 18:00 0,3 °C -0,4 °C -3,6 °C 96 % 1004,0 hPa 0,0 l/m² 0,00 h 0,00 h 0 W/m² 9,3 km/h (2 Bft) 97,03 %
26.01.2026 19:00 0,1 °C -0,6 °C -3,9 °C 96 % 1004,8 hPa 0,0 l/m² 0,00 h 0,00 h 0 W/m² 9,1 km/h (2 Bft) 98,12 %
26.01.2026 20:00 -0,0 °C -0,6 °C -3,9 °C 97 % 1005,2 hPa 0,0 l/m² 0,00 h 0,00 h 0 W/m² 7,9 km/h (2 Bft) 95,18 %
26.01.2026 21:00 -0,0 °C -0,6 °C -3,8 °C 96 % 1005,5 hPa 0,0 l/m² 0,00 h 0,00 h 0 W/m² 1,6 km/h (1 Bft) 98,41 %
26.01.2026 22:00 0,0 °C -0,6 °C -3,8 °C 96 % 1005,4 hPa 0,0 l/m² 0,00 h 0,00 h 0 W/m² 0,2 km/h (0 Bft) 96,16 %
26.01.2026 23:00 0,1 °C -0,6 °C -3,5 °C 96 % 1005,3 hPa 0,0 l/m² 0,00 h 0,00 h 0 W/m² 3,1 km/h (1 Bft) 94,70 %
27.01.2026 00:00 -0,1 °C -0,6 °C -3,3 °C 96 % 1004,8 hPa 0,0 l/m² 0,00 h 0,00 h 0 W/m² 2,4 km/h (1 Bft) 96,17 %
27.01.2026 01:00 -0,1 °C -0,6 °C -3,9 °C 96 % 1004,2 hPa 0,0 l/m² 0,00 h 0,00 h 0 W/m² 2,5 km/h (1 Bft) 96,54 %
27.01.2026 02:00 -0,2 °C -0,8 °C -3,9 °C 96 % 1003,8 hPa 0,0 l/m² 0,00 h 0,00 h 0 W/m² 2,5 km/h (1 Bft) 95,56 %
27.01.2026 03:00 -0,2 °C -0,6 °C -3,9 °C 96 % 1003,1 hPa 0,0 l/m² 0,00 h 0,00 h 0 W/m² 3,9 km/h (1 Bft) 98,17 %
27.01.2026 04:00 -0,1 °C -0,8 °C -3,9 °C 96 % 1002,6 hPa 0,0 l/m² 0,00 h 0,00 h 0 W/m² 3,2 km/h (1 Bft) 98,28 %
27.01.2026 05:00 -0,3 °C -1,2 °C -4,0 °C 96 % 1001,9 hPa 0,0 l/m² 0,00 h 0,00 h 0 W/m² 3,9 km/h (1 Bft) 96,50 %
27.01.2026 06:00 -0,8 °C -2,0 °C -4,9 °C 96 % 1001,0 hPa 0,0 l/m² 0,00 h 0,00 h 0 W/m² 0,7 km/h (0 Bft) 97,77 %
27.01.2026 07:00 -0,8 °C -1,3 °C -4,2 °C 96 % 1000,3 hPa 0,0 l/m² 0,00 h 0,00 h 0 W/m² 1,4 km/h (1 Bft) 98,24 %
27.01.2026 08:00 -0,4 °C -1,1 °C -4,0 °C 97 % 999,8 hPa 0,0 l/m² 0,00 h 0,00 h 9 W/m² 1,4 km/h (1 Bft) 95,65 %
27.01.2026 09:00 0,0 °C -0,2 °C -3,4 °C 97 % 999,1 hPa 0,0 l/m² 0,00 h 0,00 h 39 W/m² 3,4 km/h (1 Bft) 97,50 %
27.01.2026 10:00 0,9 °C 1,5 °C -2,3 °C 97 % 998,3 hPa 0,0 l/m² 0,00 h 0,00 h 82 W/m² 5,4 km/h (1 Bft) 96,18 %
27.01.2026 11:00 2,3 °C 2,8 °C -0,8 °C 96 % 997,4 hPa 0,0 l/m² 0,00 h 0,00 h 89 W/m² 14,7 km/h (3 Bft) 95,94 %
27.01.2026 12:00 3,9 °C 4,1 °C 0,3 °C 90 % 996,2 hPa 0,0 l/m² 0,00 h 0,00 h 81 W/m² 16,1 km/h (3 Bft) 99,04 %
27.01.2026 13:00 4,8 °C 4,8 °C 0,9 °C 85 % 994,7 hPa 0,0 l/m² 0,00 h 0,00 h 103 W/m² 17,4 km/h (3 Bft) 96,55 %
27.01.2026 14:00 5,4 °C 5,3 °C 1,1 °C 83 % 993,6 hPa 0,0 l/m² 0,00 h 0,00 h 82 W/m² 16,9 km/h (3 Bft) 97,14 %
27.01.2026 15:00 5,6 °C 5,0 °C 1,1 °C 83 % 993,0 hPa 0,0 l/m² 0,00 h 0,03 h 41 W/m² 19,7 km/h (3 Bft) 96,97 %
27.01.2026 16:00 5,5 °C 4,6 °C 0,2 °C 84 % 993,0 hPa 0,2 l/m² 0,00 h 0,27 h 11 W/m² 22,0 km/h (4 Bft) 95,05 %
27.01.2026 17:00 4,8 °C 3,8 °C -0,6 °C 89 % 993,0 hPa 1,0 l/m² 0,00 h 0,67 h 0 W/m² 20,4 km/h (4 Bft) 95,00 %
27.01.2026 18:00 4,3 °C 3,3 °C -0,6 °C 93 % 993,0 hPa 1,4 l/m² 0,00 h 1,02 h 0 W/m² 18,9 km/h (3 Bft) 97,79 %
27.01.2026 19:00 4,1 °C 3,3 °C -0,6 °C 95 % 992,9 hPa 1,0 l/m² 0,00 h 0,88 h 0 W/m² 16,9 km/h (3 Bft) 97,30 %
27.01.2026 20:00 4,0 °C 3,3 °C -0,6 °C 96 % 993,1 hPa 0,7 l/m² 0,00 h 0,73 h 0 W/m² 16,2 km/h (3 Bft) 97,61 %
27.01.2026 21:00 4,0 °C 3,3 °C -0,2 °C 97 % 993,3 hPa 0,2 l/m² 0,00 h 0,03 h 0 W/m² 15,6 km/h (3 Bft) 96,60 %
27.01.2026 22:00 4,0 °C 3,3 °C 0,0 °C 97 % 993,4 hPa 0,0 l/m² 0,00 h 0,00 h 0 W/m² 13,3 km/h (3 Bft) 98,28 %
27.01.2026 23:00 4,0 °C 3,3 °C 0,0 °C 97 % 993,9 hPa 0,0 l/m² 0,00 h 0,00 h 0 W/m² 11,9 km/h (2 Bft) 95,89 %
28.01.2026 00:00 4,0 °C 3,3 °C 0,0 °C 98 % 994,2 hPa 0,0 l/m² 0,00 h 0,00 h 0 W/m² 13,3 km/h (3 Bft) 88,36 %
28.01.2026 01:00 3,9 °C 3,3 °C 0,0 °C 98 % 994,0 hPa 0,0 l/m² 0,00 h 0,00 h 0 W/m² 9,4 km/h (2 Bft) 99,63 %
28.01.2026 02:00 4,1 °C 3,3 °C 0,0 °C 98 % 994,3 hPa 0,0 l/m² 0,00 h 0,00 h 0 W/m² 11,0 km/h (2 Bft) 98,17 %
28.01.2026 03:00 4,1 °C 3,3 °C 0,0 °C 98 % 994,6 hPa 0,0 l/m² 0,00 h 0,00 h 0 W/m² 13,7 km/h (3 Bft) 97,73 %
28.01.2026 04:00 4,0 °C 3,3 °C 0,0 °C 98 % 994,4 hPa 0,0 l/m² 0,00 h 0,00 h 0 W/m² 6,7 km/h (2 Bft) 97,95 %
28.01.2026 05:00 3,9 °C 3,3 °C 0,0 °C 98 % 994,5 hPa 0,0 l/m² 0,00 h 0,00 h 0 W/m² 4,0 km/h (1 Bft) 99,34 %
28.01.2026 06:00 4,0 °C 3,3 °C 0,0 °C 98 % 994,5 hPa 0,0 l/m² 0,00 h 0,00 h 0 W/m² 1,1 km/h (0 Bft) 99,34 %
28.01.2026 07:00 3,9 °C 3,3 °C 0,0 °C 98 % 994,5 hPa 0,0 l/m² 0,00 h 0,00 h 0 W/m² 0,0 km/h (0 Bft) 99,49 %
28.01.2026 08:00 3,9 °C 3,3 °C 0,6 °C 98 % 994,7 hPa 0,0 l/m² 0,00 h 0,00 h 5 W/m² 0,0 km/h (0 Bft) 96,74 %
28.01.2026 09:00 4,1 °C 3,6 °C 0,6 °C 98 % 994,8 hPa 0,0 l/m² 0,00 h 0,00 h 13 W/m² 0,2 km/h (0 Bft) 97,71 %
28.01.2026 10:00 4,4 °C 4,2 °C 1,0 °C 99 % 995,0 hPa 0,0 l/m² 0,00 h 0,00 h 32 W/m² 0,0 km/h (0 Bft) 97,50 %
28.01.2026 11:00 4,7 °C 4,4 °C 1,1 °C 99 % 995,3 hPa 0,0 l/m² 0,00 h 0,00 h 39 W/m² 2,8 km/h (1 Bft) 97,45 %
28.01.2026 12:00 4,7 °C 4,7 °C 1,3 °C 99 % 995,3 hPa 0,0 l/m² 0,00 h 0,00 h 43 W/m² 4,0 km/h (1 Bft) 94,94 %
28.01.2026 13:00 4,6 °C 4,5 °C 1,2 °C 99 % 994,9 hPa 0,0 l/m² 0,00 h 0,00 h 39 W/m² 6,2 km/h (2 Bft) 97,92 %
28.01.2026 14:00 3,8 °C 3,7 °C 0,6 °C 98 % 995,1 hPa 0,0 l/m² 0,00 h 0,00 h 29 W/m² 9,0 km/h (2 Bft) 95,14 %
28.01.2026 15:00 3,5 °C 3,1 °C 0,2 °C 98 % 995,4 hPa 0,0 l/m² 0,00 h 0,00 h 16 W/m² 8,6 km/h (2 Bft) 99,18 %
28.01.2026 16:00 3,0 °C 2,7 °C -0,4 °C 98 % 995,7 hPa 0,0 l/m² 0,00 h 0,00 h 6 W/m² 8,6 km/h (2 Bft) 97,55 %
28.01.2026 17:00 2,4 °C 2,1 °C -0,8 °C 98 % 995,9 hPa 0,0 l/m² 0,00 h 0,00 h 0 W/m² 10,0 km/h (2 Bft) 93,86 %
28.01.2026 18:00 1,9 °C 1,5 °C -1,1 °C 97 % 996,2 hPa 0,0 l/m² 0,00 h 0,00 h 0 W/m² 8,5 km/h (2 Bft) 98,66 %
28.01.2026 19:00 1,5 °C 1,1 °C -1,6 °C 97 % 996,4 hPa 0,0 l/m² 0,00 h 0,00 h 0 W/m² 8,2 km/h (2 Bft) 95,29 %
28.01.2026 20:00 1,2 °C 0,9 °C -1,7 °C 96 % 996,4 hPa 0,0 l/m² 0,00 h 0,00 h 0 W/m² 8,3 km/h (2 Bft) 95,29 %
28.01.2026 21:00 1,1 °C 0,6 °C -2,2 °C 95 % 996,6 hPa 0,0 l/m² 0,00 h 0,00 h 0 W/m² 8,5 km/h (2 Bft) 96,89 %
28.01.2026 22:00 0,9 °C 0,5 °C -2,6 °C 95 % 996,8 hPa 0,0 l/m² 0,00 h 0,00 h 0 W/m² 6,1 km/h (2 Bft) 99,10 %
28.01.2026 23:00 0,8 °C 0,0 °C -2,8 °C 95 % 997,2 hPa 0,0 l/m² 0,00 h 0,00 h 0 W/m² 5,0 km/h (1 Bft) 96,32 %
29.01.2026 00:00 0,6 °C 0,0 °C -3,2 °C 96 % 997,5 hPa 0,0 l/m² 0,00 h 0,20 h 0 W/m² 2,7 km/h (1 Bft) 93,75 %
29.01.2026 01:00 0,5 °C -0,2 °C -3,3 °C 96 % 997,5 hPa 0,0 l/m² 0,00 h 0,03 h 0 W/m² 2,2 km/h (1 Bft) 101,78 %
29.01.2026 02:00 0,4 °C -0,2 °C -3,3 °C 96 % 997,7 hPa 0,0 l/m² 0,00 h 0,10 h 0 W/m² 3,7 km/h (1 Bft) 97,32 %
29.01.2026 03:00 0,2 °C -0,6 °C -3,3 °C 97 % 997,7 hPa 0,0 l/m² 0,00 h 0,07 h 0 W/m² 3,2 km/h (1 Bft) 97,06 %
29.01.2026 04:00 0,2 °C -0,6 °C -3,3 °C 97 % 997,8 hPa 0,0 l/m² 0,00 h 0,00 h 0 W/m² 1,9 km/h (1 Bft) 95,32 %
29.01.2026 05:00 0,2 °C -0,6 °C -3,2 °C 97 % 998,1 hPa 0,0 l/m² 0,00 h 0,00 h 0 W/m² 1,6 km/h (1 Bft) 99,73 %
29.01.2026 06:00 0,2 °C -0,0 °C -2,8 °C 98 % 998,4 hPa 0,0 l/m² 0,00 h 0,00 h 0 W/m² 0,0 km/h (0 Bft) 95,56 %
29.01.2026 07:00 0,3 °C 0,0 °C -2,8 °C 98 % 998,6 hPa 0,0 l/m² 0,00 h 0,00 h 0 W/m² 1,0 km/h (0 Bft) 96,70 %
29.01.2026 08:00 0,4 °C 0,0 °C -2,8 °C 98 % 999,1 hPa 0,2 l/m² 0,00 h 0,00 h 0 W/m² 1,6 km/h (1 Bft) 98,57 %
29.01.2026 09:00 0,5 °C 0,0 °C -2,8 °C 98 % 999,4 hPa 0,2 l/m² 0,00 h 0,00 h 6 W/m² 4,2 km/h (1 Bft) 96,52 %
29.01.2026 10:00 0,6 °C 0,3 °C -2,4 °C 98 % 999,8 hPa 0,5 l/m² 0,00 h 0,00 h 23 W/m² 5,0 km/h (1 Bft) 96,35 %
29.01.2026 11:00 0,8 °C 1,0 °C -2,2 °C 98 % 1000,1 hPa 1,0 l/m² 0,00 h 0,00 h 59 W/m² 6,4 km/h (2 Bft) 96,63 %
29.01.2026 12:00 0,8 °C 0,9 °C -2,0 °C 98 % 1000,2 hPa 0,5 l/m² 0,00 h 0,00 h 45 W/m² 4,4 km/h (1 Bft) 97,96 %
29.01.2026 13:00 1,2 °C 1,4 °C -1,7 °C 98 % 1000,1 hPa 0,7 l/m² 0,00 h 0,00 h 64 W/m² 4,2 km/h (1 Bft) 94,67 %
29.01.2026 14:00 1,2 °C 1,4 °C -1,7 °C 98 % 1000,1 hPa 0,5 l/m² 0,00 h 0,00 h 53 W/m² 1,0 km/h (0 Bft) 99,34 %
29.01.2026 15:00 1,5 °C 1,7 °C -1,7 °C 98 % 1000,3 hPa 0,2 l/m² 0,00 h 0,00 h 37 W/m² 2,1 km/h (1 Bft) 96,65 %
29.01.2026 16:00 1,6 °C 1,4 °C -1,7 °C 97 % 1000,4 hPa 0,0 l/m² 0,00 h 0,00 h 15 W/m² 0,0 km/h (0 Bft) 96,35 %
29.01.2026 17:00 1,6 °C 1,1 °C -2,0 °C 97 % 1000,5 hPa 0,0 l/m² 0,00 h 0,00 h 5 W/m² 0,0 km/h (0 Bft) 98,50 %
29.01.2026 18:00 1,5 °C 1,0 °C -2,0 °C 97 % 1000,6 hPa 0,0 l/m² 0,00 h 0,00 h 0 W/m² 0,0 km/h (0 Bft) 95,62 %
29.01.2026 19:00 1,3 °C 0,6 °C -2,2 °C 96 % 1000,6 hPa 0,0 l/m² 0,00 h 0,00 h 0 W/m² 0,0 km/h (0 Bft) 96,55 %
29.01.2026 20:00 1,2 °C 0,6 °C -2,2 °C 97 % 1000,5 hPa 0,0 l/m² 0,00 h 0,00 h 0 W/m² 0,0 km/h (0 Bft) 97,08 %
29.01.2026 21:00 1,4 °C 1,0 °C -1,7 °C 97 % 1000,2 hPa 0,0 l/m² 0,00 h 0,00 h 0 W/m² 0,0 km/h (0 Bft) 99,46 %
29.01.2026 22:00 1,5 °C 1,0 °C -1,7 °C 97 % 999,9 hPa 0,0 l/m² 0,00 h 0,00 h 0 W/m² 0,0 km/h (0 Bft) 94,55 %
29.01.2026 23:00 1,6 °C 1,1 °C -1,7 °C 97 % 999,8 hPa 0,0 l/m² 0,00 h 0,00 h 0 W/m² 0,0 km/h (0 Bft) 96,24 %
30.01.2026 00:00 1,6 °C 1,1 °C -1,7 °C 97 % 999,7 hPa 0,0 l/m² 0,00 h 0,00 h 0 W/m² 0,0 km/h (0 Bft) 95,25 %
30.01.2026 01:00 1,7 °C 1,1 °C -1,7 °C 98 % 999,4 hPa 0,0 l/m² 0,00 h 0,00 h 0 W/m² 2,7 km/h (1 Bft) 96,54 %
30.01.2026 02:00 1,7 °C 1,1 °C -1,7 °C 98 % 999,3 hPa 0,0 l/m² 0,00 h 0,00 h 0 W/m² 5,2 km/h (1 Bft) 97,49 %
30.01.2026 03:00 1,7 °C 1,1 °C -1,3 °C 98 % 999,3 hPa 0,0 l/m² 0,00 h 0,00 h 0 W/m² 8,1 km/h (2 Bft) 96,03 %
30.01.2026 04:00 1,5 °C 1,0 °C -1,7 °C 98 % 999,2 hPa 0,0 l/m² 0,00 h 0,00 h 0 W/m² 13,5 km/h (3 Bft) 96,94 %
30.01.2026 05:00 1,1 °C 0,6 °C -1,8 °C 98 % 998,8 hPa 0,0 l/m² 0,00 h 0,00 h 0 W/m² 14,1 km/h (3 Bft) 95,51 %
30.01.2026 06:00 0,8 °C 0,0 °C -2,4 °C 98 % 998,5 hPa 0,0 l/m² 0,00 h 0,00 h 0 W/m² 7,3 km/h (2 Bft) 97,07 %
30.01.2026 07:00 0,3 °C -0,6 °C -2,8 °C 97 % 998,4 hPa 0,0 l/m² 0,00 h 0,00 h 0 W/m² 4,2 km/h (1 Bft) 95,88 %
30.01.2026 08:00 0,3 °C -0,2 °C -2,6 °C 98 % 998,5 hPa 0,0 l/m² 0,00 h 0,00 h 10 W/m² 11,8 km/h (2 Bft) 96,15 %
30.01.2026 09:00 0,5 °C 0,3 °C -2,2 °C 98 % 998,8 hPa 0,0 l/m² 0,00 h 0,00 h 30 W/m² 19,0 km/h (3 Bft) 98,36 %
30.01.2026 10:00 1,0 °C 1,2 °C -1,6 °C 98 % 998,7 hPa 0,0 l/m² 0,00 h 0,00 h 57 W/m² 19,4 km/h (3 Bft) 93,49 %
30.01.2026 11:00 1,7 °C 2,3 °C -0,7 °C 97 % 998,6 hPa 0,0 l/m² 0,00 h 0,00 h 121 W/m² 21,3 km/h (4 Bft) 94,66 %
30.01.2026 12:00 2,7 °C 3,9 °C 0,0 °C 95 % 998,3 hPa 0,0 l/m² 0,07 h 0,00 h 162 W/m² 22,5 km/h (4 Bft) 98,63 %
30.01.2026 13:00 4,0 °C 8,2 °C 0,8 °C 91 % 998,2 hPa 0,0 l/m² 0,77 h 0,00 h 288 W/m² 19,5 km/h (3 Bft) 96,51 %
30.01.2026 14:00 5,3 °C 8,5 °C 1,0 °C 86 % 997,7 hPa 0,0 l/m² 0,93 h 0,00 h 270 W/m² 21,0 km/h (4 Bft) 98,16 %
30.01.2026 15:00 5,0 °C 5,5 °C 0,5 °C 86 % 997,6 hPa 0,0 l/m² 0,73 h 0,00 h 151 W/m² 19,7 km/h (3 Bft) 96,67 %
30.01.2026 16:00 3,6 °C 2,8 °C -0,6 °C 89 % 997,7 hPa 0,0 l/m² 0,00 h 0,00 h 17 W/m² 18,4 km/h (3 Bft) 96,13 %
30.01.2026 17:00 3,1 °C 2,4 °C -0,9 °C 91 % 997,6 hPa 0,0 l/m² 0,00 h 0,00 h 6 W/m² 25,0 km/h (4 Bft) 95,79 %
30.01.2026 18:00 3,3 °C 2,8 °C -0,6 °C 91 % 997,8 hPa 0,0 l/m² 0,00 h 0,00 h 0 W/m² 24,0 km/h (4 Bft) 95,37 %
30.01.2026 19:00 3,3 °C 2,8 °C -0,6 °C 91 % 997,8 hPa 0,0 l/m² 0,00 h 0,00 h 0 W/m² 23,0 km/h (4 Bft) 98,01 %
30.01.2026 20:00 3,2 °C 2,5 °C -0,9 °C 91 % 997,7 hPa 0,0 l/m² 0,00 h 0,00 h 0 W/m² 21,8 km/h (4 Bft) 95,71 %
30.01.2026 21:00 3,0 °C 2,5 °C -0,9 °C 93 % 997,8 hPa 0,0 l/m² 0,00 h 0,00 h 0 W/m² 19,1 km/h (3 Bft) 99,36 %
30.01.2026 22:00 3,2 °C 2,8 °C -0,6 °C 93 % 997,9 hPa 0,0 l/m² 0,00 h 0,00 h 0 W/m² 18,6 km/h (3 Bft) 96,27 %
30.01.2026 23:00 3,3 °C 2,8 °C -0,6 °C 93 % 998,3 hPa 0,0 l/m² 0,00 h 0,00 h 0 W/m² 23,4 km/h (4 Bft) 97,56 %
31.01.2026 00:00 3,5 °C 2,8 °C -0,6 °C 93 % 998,2 hPa 0,0 l/m² 0,00 h 0,00 h 0 W/m² 20,0 km/h (4 Bft) 98,42 %
31.01.2026 01:00 3,6 °C 3,0 °C -0,4 °C 93 % 998,1 hPa 0,0 l/m² 0,00 h 0,00 h 0 W/m² 21,8 km/h (4 Bft) 95,66 %
31.01.2026 02:00 3,6 °C 2,8 °C -0,6 °C 93 % 998,2 hPa 0,0 l/m² 0,00 h 0,00 h 0 W/m² 16,8 km/h (3 Bft) 96,76 %
31.01.2026 03:00 3,7 °C 3,3 °C -0,0 °C 94 % 998,3 hPa 0,0 l/m² 0,00 h 0,00 h 0 W/m² 18,2 km/h (3 Bft) 96,20 %
31.01.2026 04:00 3,9 °C 3,3 °C 0,0 °C 94 % 998,4 hPa 0,0 l/m² 0,00 h 0,00 h 0 W/m² 18,8 km/h (3 Bft) 96,82 %
31.01.2026 05:00 4,1 °C 3,4 °C 0,0 °C 94 % 998,7 hPa 0,2 l/m² 0,00 h 0,17 h 0 W/m² 18,0 km/h (3 Bft) 97,56 %
31.01.2026 06:00 4,2 °C 3,3 °C 0,0 °C 95 % 999,2 hPa 0,2 l/m² 0,00 h 0,03 h 0 W/m² 16,1 km/h (3 Bft) 97,64 %
31.01.2026 07:00 4,2 °C 3,7 °C 0,0 °C 96 % 999,9 hPa 0,2 l/m² 0,00 h 0,07 h 0 W/m² 16,1 km/h (3 Bft) 96,86 %
31.01.2026 08:00 4,3 °C 3,7 °C 0,0 °C 96 % 1000,6 hPa 0,0 l/m² 0,00 h 0,00 h 9 W/m² 16,5 km/h (3 Bft) 96,13 %
31.01.2026 09:00 4,4 °C 4,1 °C 0,6 °C 97 % 1001,4 hPa 0,0 l/m² 0,00 h 0,00 h 36 W/m² 17,5 km/h (3 Bft) 97,36 %
31.01.2026 10:00 4,8 °C 4,9 °C 1,1 °C 97 % 1002,0 hPa 0,0 l/m² 0,00 h 0,00 h 78 W/m² 21,5 km/h (4 Bft) 98,29 %
31.01.2026 11:00 5,4 °C 5,5 °C 1,7 °C 97 % 1002,5 hPa 0,2 l/m² 0,00 h 0,17 h 111 W/m² 19,8 km/h (4 Bft) 95,91 %
31.01.2026 12:00 6,0 °C 6,5 °C 2,2 °C 97 % 1002,8 hPa 0,0 l/m² 0,00 h 0,13 h 144 W/m² 19,7 km/h (3 Bft) 99,30 %
31.01.2026 13:00 6,3 °C 6,4 °C 2,6 °C 96 % 1003,0 hPa 0,0 l/m² 0,00 h 0,00 h 110 W/m² 17,2 km/h (3 Bft) 96,53 %
31.01.2026 14:00 6,8 °C 7,4 °C 3,3 °C 95 % 1003,3 hPa 0,0 l/m² 0,17 h 0,00 h 129 W/m² 16,0 km/h (3 Bft) 95,68 %
31.01.2026 15:00 7,1 °C 7,1 °C 3,3 °C 94 % 1003,9 hPa 0,0 l/m² 0,10 h 0,00 h 81 W/m² 12,1 km/h (2 Bft) 97,85 %
31.01.2026 16:00 7,2 °C 6,6 °C 3,1 °C 93 % 1004,5 hPa 0,0 l/m² 0,10 h 0,00 h 33 W/m² 10,3 km/h (2 Bft) 96,36 %
31.01.2026 17:00 6,7 °C 6,1 °C 2,8 °C 93 % 1005,1 hPa 0,0 l/m² 0,00 h 0,00 h 5 W/m² 9,9 km/h (2 Bft) 97,68 %
31.01.2026 18:00 6,5 °C 5,7 °C 2,4 °C 93 % 1005,7 hPa 0,0 l/m² 0,00 h 0,00 h 0 W/m² 9,9 km/h (2 Bft) 99,30 %
31.01.2026 19:00 6,2 °C 5,6 °C 2,2 °C 93 % 1006,2 hPa 0,0 l/m² 0,00 h 0,00 h 0 W/m² 13,3 km/h (3 Bft) 94,88 %
31.01.2026 20:00 5,9 °C 5,2 °C 2,0 °C 93 % 1006,6 hPa 0,0 l/m² 0,00 h 0,00 h 0 W/m² 14,5 km/h (3 Bft) 98,80 %
31.01.2026 21:00 5,7 °C 5,0 °C 1,7 °C 93 % 1007,0 hPa 0,0 l/m² 0,00 h 0,00 h 0 W/m² 16,6 km/h (3 Bft) 95,90 %
31.01.2026 22:00 5,5 °C 5,0 °C 1,7 °C 93 % 1007,4 hPa 0,0 l/m² 0,00 h 0,00 h 0 W/m² 15,4 km/h (3 Bft) 96,56 %
31.01.2026 23:00 5,1 °C 4,2 °C 1,1 °C 93 % 1007,6 hPa 0,0 l/m² 0,00 h 0,00 h 0 W/m² 15,9 km/h (3 Bft) 97,09 %
01.02.2026 00:00 4,5 °C 3,9 °C 0,6 °C 94 % 1007,9 hPa 0,0 l/m² 0,00 h 0,00 h 0 W/m² 13,1 km/h (3 Bft) 87,18 %
01.02.2026 01:00 4,1 °C 3,2 °C 0,2 °C 95 % 1007,9 hPa 0,0 l/m² 0,00 h 0,00 h 0 W/m² 12,1 km/h (2 Bft) 96,80 %
01.02.2026 02:00 3,6 °C 2,7 °C -0,2 °C 95 % 1008,0 hPa 0,0 l/m² 0,00 h 0,00 h 0 W/m² 9,8 km/h (2 Bft) 97,01 %
01.02.2026 03:00 3,1 °C 2,2 °C -0,6 °C 95 % 1008,0 hPa 0,0 l/m² 0,00 h 0,00 h 0 W/m² 10,1 km/h (2 Bft) 98,79 %
01.02.2026 04:00 2,8 °C 1,9 °C -1,0 °C 96 % 1008,0 hPa 0,0 l/m² 0,00 h 0,00 h 0 W/m² 7,9 km/h (2 Bft) 96,05 %
01.02.2026 05:00 2,7 °C 2,2 °C -0,8 °C 96 % 1007,8 hPa 0,0 l/m² 0,00 h 0,00 h 0 W/m² 11,1 km/h (2 Bft) 95,99 %
01.02.2026 06:00 3,2 °C 2,8 °C -0,1 °C 97 % 1007,9 hPa 0,0 l/m² 0,00 h 0,00 h 0 W/m² 14,4 km/h (3 Bft) 96,86 %
01.02.2026 07:00 3,5 °C 2,9 °C 0,0 °C 97 % 1007,8 hPa 0,0 l/m² 0,00 h 0,00 h 0 W/m² 14,9 km/h (3 Bft) 94,74 %
01.02.2026 08:00 3,3 °C 2,9 °C 0,0 °C 96 % 1007,9 hPa 0,0 l/m² 0,00 h 0,00 h 12 W/m² 15,5 km/h (3 Bft) 97,82 %
01.02.2026 09:00 3,8 °C 3,9 °C 0,7 °C 97 % 1007,9 hPa 0,0 l/m² 0,00 h 0,00 h 57 W/m² 15,8 km/h (3 Bft) 99,01 %
01.02.2026 10:00 4,4 °C 4,4 °C 1,2 °C 96 % 1007,8 hPa 0,0 l/m² 0,00 h 0,00 h 64 W/m² 15,9 km/h (3 Bft) 93,26 %
01.02.2026 11:00 5,2 °C 6,5 °C 2,3 °C 95 % 1007,6 hPa 0,0 l/m² 0,40 h 0,00 h 174 W/m² 18,6 km/h (3 Bft) 99,57 %
01.02.2026 12:00 6,9 °C 9,7 °C 3,8 °C 91 % 1007,2 hPa 0,0 l/m² 1,00 h 0,00 h 271 W/m² 18,0 km/h (3 Bft) 98,34 %
01.02.2026 13:00 7,7 °C 8,2 °C 4,1 °C 88 % 1006,8 hPa 0,0 l/m² 0,30 h 0,00 h 175 W/m² 19,4 km/h (3 Bft) 93,94 %
01.02.2026 14:00 8,0 °C 8,5 °C 4,2 °C 87 % 1006,2 hPa 0,0 l/m² 0,50 h 0,00 h 160 W/m² 18,0 km/h (3 Bft) 98,10 %
01.02.2026 15:00 8,1 °C 7,9 °C 3,9 °C 87 % 1005,7 hPa 0,0 l/m² 0,30 h 0,00 h 96 W/m² 17,6 km/h (3 Bft) 98,88 %
01.02.2026 16:00 7,7 °C 7,0 °C 3,2 °C 87 % 1005,6 hPa 0,0 l/m² 0,00 h 0,00 h 25 W/m² 18,3 km/h (3 Bft) 95,70 %
01.02.2026 17:00 7,0 °C 6,1 °C 2,5 °C 89 % 1005,5 hPa 0,0 l/m² 0,00 h 0,00 h 9 W/m² 16,3 km/h (3 Bft) 99,10 %
01.02.2026 18:00 6,2 °C 5,4 °C 1,8 °C 90 % 1005,5 hPa 0,0 l/m² 0,00 h 0,00 h 0 W/m² 11,2 km/h (2 Bft) 95,28 %
01.02.2026 19:00 6,0 °C 5,1 °C 1,7 °C 92 % 1005,4 hPa 0,0 l/m² 0,00 h 0,00 h 0 W/m² 18,4 km/h (3 Bft) 97,32 %
01.02.2026 20:00 5,7 °C 4,9 °C 1,5 °C 93 % 1005,3 hPa 0,0 l/m² 0,00 h 0,00 h 0 W/m² 14,9 km/h (3 Bft) 98,68 %
01.02.2026 21:00 5,4 °C 5,0 °C 1,6 °C 93 % 1004,9 hPa 0,0 l/m² 0,00 h 0,00 h 0 W/m² 13,6 km/h (3 Bft) 94,80 %
01.02.2026 22:00 5,6 °C 5,0 °C 1,7 °C 93 % 1004,6 hPa 0,0 l/m² 0,00 h 0,00 h 0 W/m² 17,0 km/h (3 Bft) 96,61 %
01.02.2026 23:00 5,6 °C 5,0 °C 1,7 °C 92 % 1004,3 hPa 0,0 l/m² 0,00 h 0,00 h 0 W/m² 18,6 km/h (3 Bft) 96,42 %
Min-Datum _ 26.01.26 26.01.26 26.01.26 27.01.26 27.01.26 - - - - 26.01.26 30.01.26
_ Min-Zeit 00:28 00:00 00:07 15:02 15:18 - - - - 00:00 00:02
Minimum _ -2,1 °C -3,3 °C -6,7 °C 82 % 992,9 hPa - - - - 0,0 km/h (0 Bft) 4,76 %
Max-Datum _ 01.02.26 01.02.26 01.02.26 28.01.26 01.02.26 27.01.26 31.01.26 27.01.26 01.02.26 30.01.26 29.01.26
_ Max-Zeit 14:42 12:28 12:46 10:32 02:52 18:12 15:56 18:08 12:28 17:10 01:36
Maximum _ 8,2 °C 11,7 °C 4,4 °C 99 % 1008,3 hPa 1,4 l/m² 0,07 h 0,08 h 461 W/m² 41,8 km/h
O-SO (6 Bft)
166,08 %
Durchschnitt _ 2,7 °C 2,3 °C -1,0 °C 95 % 1000,2 hPa #9,6 l/m² #5:22 h #4:42 h 63 W/m² 10,5 km/h (2 Bft) 96,85 %
© 2026 W. Hausmann